Flag for U.S.A. Weather past 2 weeks in Raleigh, North Carolina, U.S.A.

Now
60 °F

Mostly cloudy.


Feels Like: 60 °F
Forecast: 58 / 67 °F
Wind: 9 mph from Northeast

Location: Raleigh-Durham International Airport

Current Time: Sep 23, 2014 at 6:52:15 PM

Latest Report: Sep 23, 2014 at 5:51 PM


Visibility: 10 mi

Pressure: 30.29 "Hg

Humidity: 69%

Dew point: 50 °F

Location of RaleighLocation

Historic Weather in Raleigh — Graph

°F

Raleigh temperature yesterday

Maximum temperature yesterday: 76 °F (at 2:51 PM)
Minimum temperature yesterday: 63 °F (at 6:51 AM)
Average temperature yesterday: 69 °F

Past Weeks' High & Low Weather Summary

 TemperatureHumidityPressure
High87 °F (Sep 11, 1:51 PM)93% (Sep 9, 2:51 AM)30.32 "Hg (Sep 9, 2:51 AM)
Low58 °F (Sep 20, 5:51 AM)43% (Sep 21, 2:51 PM)29.78 "Hg (Sep 21, 3:51 PM)
Average71 °F76%30.07 "Hg
* Reported Sep 8 5:51 PM — Sep 23 5:51 PM, Raleigh, Weather by CustomWeather, © 2014

Note: Actual official high and low records may vary slightly from our data, if they occured in-between our weather recording intervals... More about our weather records

Advertising

Raleigh weather history for previous 24 hours

 ConditionsComfort  
Time TempWeatherWind HumidityBarometerVisibility
5:51 PM
Sep 23
60 °FMostly cloudy.9 mph69%30.29 "Hg10 mi
4:51 PM61 °FCloudy.7 mph67%30.28 "Hg10 mi
3:51 PM61 °FMostly cloudy.7 mph67%30.30 "Hg10 mi
2:51 PM62 °FCloudy.7 mph65%30.31 "Hg10 mi
1:51 PM62 °FCloudy.7 mph65%30.32 "Hg10 mi
12:51 PM62 °FCloudy.14 mph62%30.32 "Hg10 mi
11:51 AM60 °FMostly cloudy.8 mph65%30.32 "Hg10 mi
10:51 AM59 °FPartly sunny.9 mph64%30.32 "Hg10 mi
9:51 AM58 °FMostly cloudy.8 mph65%30.32 "Hg10 mi
8:51 AM58 °FMostly cloudy.7 mph62%30.31 "Hg10 mi
7:51 AM58 °FPassing clouds.8 mph65%30.27 "Hg10 mi
6:51 AM58 °FPassing clouds.9 mph67%30.24 "Hg10 mi
5:51 AM59 °FPassing clouds.9 mph67%30.21 "Hg10 mi
4:51 AM61 °FPassing clouds.13 mph62%30.19 "Hg10 mi
3:51 AM62 °FPartly cloudy.9 mph62%30.18 "Hg10 mi
2:51 AM63 °FPassing clouds.14 mph68%30.16 "Hg10 mi
1:51 AM64 °FPassing clouds.7 mph70%30.16 "Hg10 mi
12:51 AM64 °FMostly cloudy.No wind81%30.16 "Hg10 mi
11:51 PM
Sep 22
64 °FMostly cloudy.5 mph78%30.15 "Hg10 mi
10:51 PM64 °FMostly cloudy.No wind81%30.15 "Hg10 mi
9:51 PM63 °FPassing clouds.No wind84%30.14 "Hg10 mi
8:51 PM65 °FPassing clouds.No wind78%30.12 "Hg10 mi
7:51 PM66 °FPartly sunny.No wind70%30.10 "Hg10 mi
6:51 PM67 °FPartly sunny.No wind71%30.08 "Hg10 mi
Weather by CustomWeather, © 2014

See weather overviewHow to use our weather pages